| time (UTC) | temp C | wind direction | speed KPH | gust KPH | rain 1hr cm | rain 24hr cm | rain mn cm | humidity % | barometer mb |
| 20260507044517 | 8 | 198 | 3.2 | 4.8 | 0.00 | 3.02 | 0.43 | 95 | 1014.6 |
| 20260507043024 | 9 | 335 | 0.0 | 3.2 | 0.00 | 3.05 | 0.43 | 95 | 1014.4 |
| 20260507041523 | 9 | 349 | 0.0 | 0.0 | 0.00 | 3.12 | 0.43 | 94 | 1014.3 |
| 20260507040026 | 9 | 283 | 0.0 | 1.6 | 0.00 | 3.25 | 0.43 | 95 | 1014.1 |
| 20260507034514 | 9 | 176 | 1.6 | 4.8 | 0.00 | 3.73 | 0.43 | 94 | 1014.0 |
| 20260507033023 | 9 | 195 | 0.0 | 0.0 | 0.00 | 3.91 | 0.43 | 94 | 1013.9 |
| 20260507031521 | 9 | 195 | 0.0 | 3.2 | 0.00 | 3.96 | 0.43 | 94 | 1013.9 |
| 20260507030008 | 10 | 14 | 0.0 | 0.0 | 0.00 | 3.96 | 0.43 | 94 | 1013.8 |
| 20260507024512 | 10 | 20 | 0.0 | 1.6 | 0.00 | 4.14 | 0.43 | 93 | 1013.9 |
| 20260507023014 | 10 | 202 | 0.0 | 3.2 | 0.00 | 4.50 | 0.43 | 93 | 1013.8 |
| 20260507021520 | 10 | 167 | 1.6 | 3.2 | 0.00 | 4.60 | 0.43 | 93 | 1014.0 |
| 20260507020029 | 11 | 139 | 0.0 | 0.0 | 0.00 | 4.65 | 0.43 | 92 | 1013.8 |
| 20260507014510 | 11 | 160 | 0.0 | 1.6 | 0.00 | 4.65 | 0.43 | 92 | 1013.7 |
| 20260507013030 | 11 | 200 | 1.6 | 8.0 | 0.00 | 4.65 | 0.43 | 91 | 1013.7 |
| 20260507011518 | 11 | 61 | 8.0 | 9.7 | 0.03 | 4.65 | 0.43 | 92 | 1013.7 |
| 20260507010026 | 11 | 46 | 4.8 | 6.4 | 0.10 | 4.65 | 0.43 | 92 | 1013.7 |
| 20260507004524 | 11 | 66 | 1.6 | 3.2 | 0.13 | 4.65 | 0.43 | 92 | 1013.9 |
| 20260507003008 | 11 | 59 | 1.6 | 9.7 | 0.18 | 4.65 | 0.43 | 92 | 1013.8 |
| 20260507001512 | 11 | 72 | 3.2 | 8.0 | 0.23 | 4.62 | 0.41 | 92 | 1014.0 |
| 20260507000018 | 11 | 30 | 0.0 | 6.4 | 0.30 | 4.55 | 0.33 | 92 | 1014.1 |
| 20260506234522 | 11 | 55 | 4.8 | 4.8 | 0.28 | 4.52 | 0.30 | 92 | 1013.9 |
| 20260506233027 | 11 | 73 | 3.2 | 6.4 | 0.23 | 4.62 | 0.25 | 92 | 1014.2 |
| 20260506231512 | 11 | 55 | 1.6 | 4.8 | 0.15 | 5.41 | 0.18 | 91 | 1014.3 |
| 20260506230016 | 11 | 8 | 0.0 | 1.6 | 0.03 | 5.74 | 0.03 | 91 | 1014.3 |
| 20260506224520 | 11 | 60 | 4.8 | 11.3 | 0.05 | 6.50 | 0.03 | 91 | 1014.0 |
| 20260506223034 | 12 | 53 | 3.2 | 4.8 | 0.05 | 6.65 | 0.03 | 90 | 1014.0 |
| 20260506221528 | 12 | 50 | 3.2 | 8.0 | 0.08 | 6.65 | 0.03 | 90 | 1014.0 |
| 20260506220028 | 12 | 231 | 3.2 | 17.7 | 0.10 | 6.63 | 0.00 | 90 | 1014.1 |
| 20260506214531 | 12 | 215 | 3.2 | 11.3 | 0.13 | 6.60 | 6.60 | 91 | 1013.9 |
| 20260506213021 | 12 | 209 | 0.0 | 3.2 | 0.15 | 6.60 | 6.60 | 92 | 1013.9 |
| 20260506211506 | 12 | 62 | 0.0 | 6.4 | 0.18 | 6.58 | 6.58 | 92 | 1014.0 |
| 20260506210007 | 12 | 58 | 0.0 | 6.4 | 0.18 | 6.53 | 6.53 | 91 | 1013.8 |
| 20260506204514 | 12 | 205 | 3.2 | 6.4 | 0.13 | 6.48 | 6.48 | 91 | 1013.6 |
| 20260506203020 | 12 | 233 | 3.2 | 4.8 | 0.13 | 6.45 | 6.45 | 91 | 1013.5 |
| 20260506201506 | 13 | 219 | 3.2 | 6.4 | 0.08 | 6.40 | 6.40 | 90 | 1013.4 |
| 20260506200004 | 13 | 19 | 0.0 | 6.4 | 0.03 | 6.35 | 6.35 | 91 | 1013.1 |
| 20260506194507 | 13 | 243 | 0.0 | 4.8 | 0.03 | 6.35 | 6.35 | 93 | 1012.9 |
| 20260506193015 | 13 | 196 | 0.0 | 3.2 | 0.03 | 6.32 | 6.32 | 93 | 1012.8 |
| 20260506191520 | 13 | 205 | 0.0 | 3.2 | 0.03 | 6.63 | 6.32 | 93 | 1012.3 |
| 20260506190008 | 13 | 58 | 0.0 | 8.0 | 0.03 | 6.86 | 6.32 | 93 | 1012.1 |
| 20260506184507 | 13 | 55 | 6.4 | 9.7 | 0.05 | 7.92 | 6.32 | 92 | 1011.9 |
| 20260506183021 | 13 | 334 | 0.0 | 3.2 | 0.08 | 7.95 | 6.30 | 92 | 1011.9 |
| 20260506181517 | 13 | 58 | 3.2 | 6.4 | 0.10 | 7.95 | 6.30 | 92 | 1011.6 |
| 20260506180022 | 14 | 49 | 4.8 | 8.0 | 0.10 | 7.95 | 6.30 | 92 | 1011.6 |
| 20260506174504 | 14 | 199 | 3.2 | 8.0 | 0.18 | 7.92 | 6.27 | 92 | 1011.6 |
| 20260506173008 | 14 | 220 | 0.0 | 4.8 | 0.20 | 7.87 | 6.22 | 92 | 1011.5 |
| 20260506171528 | 14 | 236 | 0.0 | 3.2 | 0.58 | 7.85 | 6.20 | 93 | 1011.4 |
| 20260506170017 | 14 | 66 | 4.8 | 6.4 | 1.04 | 7.85 | 6.20 | 92 | 1011.2 |
| 20260506164523 | 14 | 56 | 3.2 | 3.2 | 1.09 | 7.75 | 6.10 | 92 | 1011.3 |
| 20260506163008 | 14 | 358 | 0.0 | 4.8 | 1.04 | 7.70 | 5.99 | 92 | 1011.3 |
| 20260506161514 | 14 | 12 | 1.6 | 3.2 | 0.74 | 7.39 | 5.61 | 90 | 1011.2 |
| 20260506160014 | 15 | 4 | 0.0 | 3.2 | 0.28 | 7.01 | 5.16 | 90 | 1011.2 |
| 20260506154524 | 15 | 13 | 0.0 | 3.2 | 0.13 | 6.86 | 5.00 | 89 | 1010.8 |
| 20260506153026 | 15 | 290 | 4.8 | 8.0 | 0.13 | 6.83 | 4.98 | 88 | 1010.9 |
| 20260506151528 | 15 | 310 | 1.6 | 4.8 | 0.03 | 6.73 | 4.88 | 85 | 1010.9 |
| 20260506150016 | 15 | 33 | 1.6 | 8.0 | 0.66 | 6.73 | 4.88 | 85 | 1011.0 |
| 20260506144529 | 15 | 337 | 4.8 | 8.0 | 0.66 | 6.76 | 4.88 | 86 | 1011.1 |
| 20260506143030 | 14 | 309 | 6.4 | 9.7 | 0.64 | 6.73 | 4.85 | 87 | 1011.2 |
| 20260506141526 | 13 | 307 | 6.4 | 17.7 | 0.64 | 6.76 | 4.85 | 86 | 1011.3 |
| 20260506140029 | 15 | 310 | 11.3 | 27.4 | 0.00 | 6.30 | 4.22 | 79 | 1011.3 |
| 20260506134516 | 19 | 317 | 11.3 | 22.5 | 0.00 | 6.30 | 4.22 | 67 | 1011.1 |
| 20260506133021 | 20 | 185 | 6.4 | 17.7 | 0.00 | 6.30 | 4.22 | 67 | 1010.6 |
| 20260506131533 | 20 | 196 | 4.8 | 25.7 | 0.00 | 6.30 | 4.22 | 68 | 1010.4 |
| 20260506130024 | 19 | 236 | 8.0 | 30.6 | 0.00 | 6.30 | 4.22 | 72 | 1010.8 |
| 20260506124528 | 19 | 312 | 8.0 | 20.9 | 0.00 | 6.68 | 4.22 | 70 | 1010.9 |
| 20260506123017 | 20 | 264 | 6.4 | 11.3 | 0.00 | 6.93 | 4.22 | 69 | 1010.9 |
| 20260506121520 | 19 | 155 | 6.4 | 17.7 | 0.00 | 7.14 | 4.22 | 70 | 1010.8 |
| 20260506120015 | 18 | 211 | 3.2 | 9.7 | 0.00 | 7.21 | 4.22 | 71 | 1011.0 |
| 20260506114520 | 18 | 203 | 4.8 | 12.9 | 0.00 | 7.47 | 4.22 | 72 | 1011.2 |
| 20260506113024 | 18 | 182 | 8.0 | 17.7 | 0.00 | 7.59 | 4.22 | 73 | 1011.3 |
| 20260506111513 | 17 | 205 | 4.8 | 16.1 | 0.00 | 7.65 | 4.22 | 76 | 1011.3 |
| 20260506110006 | 17 | 160 | 8.0 | 19.3 | 0.00 | 8.05 | 4.22 | 76 | 1011.6 |
| 20260506104508 | 17 | 206 | 8.0 | 17.7 | 0.00 | 8.13 | 4.22 | 75 | 1011.7 |
| 20260506103012 | 17 | 179 | 8.0 | 17.7 | 0.00 | 8.15 | 4.22 | 76 | 1011.9 |
| 20260506101516 | 17 | 210 | 6.4 | 14.5 | 0.00 | 8.18 | 4.22 | 76 | 1011.8 |
| 20260506100016 | 17 | 210 | 6.4 | 22.5 | 0.00 | 8.31 | 4.22 | 77 | 1011.8 |
| 20260506094506 | 17 | 236 | 11.3 | 24.1 | 0.00 | 8.31 | 4.22 | 76 | 1011.9 |
| 20260506093009 | 17 | 213 | 8.0 | 19.3 | 0.00 | 8.36 | 4.22 | 77 | 1011.8 |
| 20260506091515 | 16 | 178 | 3.2 | 17.7 | 0.03 | 8.36 | 4.22 | 82 | 1011.8 |
| 20260506090021 | 16 | 209 | 4.8 | 20.9 | 0.03 | 8.36 | 4.22 | 83 | 1011.9 |
| 20260506084518 | 16 | 223 | 8.0 | 17.7 | 0.03 | 8.36 | 4.22 | 84 | 1011.6 |
| 20260506083004 | 15 | 200 | 4.8 | 11.3 | 0.03 | 8.36 | 4.22 | 84 | 1011.5 |
| 20260506081510 | 15 | 178 | 11.3 | 24.1 | 0.00 | 8.33 | 4.19 | 83 | 1011.4 |
| 20260506073020 | 15 | 133 | 6.4 | 16.1 | 0.00 | 8.36 | 4.19 | 84 | 1011.3 |
| 20260506071520 | 15 | 168 | 3.2 | 17.7 | 0.13 | 8.36 | 4.19 | 85 | 1011.3 |
| 20260506061524 | 15 | 221 | 6.4 | 14.5 | 0.03 | 8.51 | 4.06 | 86 | 1011.1 |